[TLELIST] Archives

 

[list_settings.list_name] Current TLEs

November 22nd 2008 PST

HST 1 20580U 90037B 08325.46112312 .00000346 00000-0 13901-4 0 2660 2 20580 028.4697 023.9165 0003980 238.8759 121.1437 15.00430077818475 ISS (ZARYA) 1 25544U 98067A 08325.53404133 .00010212 00000-0 79261-4 0 6937 2 25544 051.6423 294.9402 0003904 007.3379 098.1514 15.72500280573135 CXO 1 25867U 99040B 08318.29166667 +.00000554 +00000-0 +10000-3 0 02646 2 25867 064.4828 076.2712 7104876 277.4282 356.9984 00.37801401004194 ____________________________________________________________________ These 2-Line ...Continue Reading

[list_settings.list_name] Current TLEs

November 21st 2008 PST

HST 1 20580U 90037B 08325.46112312 .00000346 00000-0 13901-4 0 2660 2 20580 028.4697 023.9165 0003980 238.8759 121.1437 15.00430077818475 ISS (ZARYA) 1 25544U 98067A 08324.51629826 .00010039 00000-0 77609-4 0 6865 2 25544 051.6437 300.1489 0004128 011.8882 088.1120 15.72617823572978 CXO 1 25867U 99040B 08318.29166667 +.00000554 +00000-0 +10000-3 0 02646 2 25867 064.4828 076.2712 7104876 277.4282 356.9984 00.37801401004194 ____________________________________________________________________ These 2-Line ...Continue Reading

[list_settings.list_name] Current TLEs

November 20th 2008 PST

HST 1 20580U 90037B 08322.53438854 .00000334 00000-0 12965-4 0 2641 2 20580 028.4690 043.0106 0003869 211.4636 148.5722 15.00428936818036 ISS (ZARYA) 1 25544U 98067A 08323.56353208 .00010943 00000-0 84253-4 0 6796 2 25544 051.6442 305.0313 0004232 008.4626 093.9267 15.72598897572827 CXO 1 25867U 99040B 08318.29166667 +.00000554 +00000-0 +10000-3 0 02646 2 25867 064.4828 076.2712 7104876 277.4282 356.9984 00.37801401004194 ____________________________________________________________________ These 2-Line ...Continue Reading

[list_settings.list_name] Current TLEs

November 19th 2008 PST

HST 1 20580U 90037B 08322.53438854 .00000334 00000-0 12965-4 0 2641 2 20580 028.4690 043.0106 0003869 211.4636 148.5722 15.00428936818036 ISS (ZARYA) 1 25544U 98067A 08322.79358914 .00007477 00000-0 58906-4 0 6726 2 25544 051.6419 308.9720 0003732 359.5439 061.1761 15.72648046572706 CXO 1 25867U 99040B 08318.29166667 +.00000554 +00000-0 +10000-3 0 02646 2 25867 064.4828 076.2712 7104876 277.4282 356.9984 00.37801401004194 ____________________________________________________________________ These 2-Line ...Continue Reading

[list_settings.list_name] Current TLEs

November 18th 2008 PST

HST 1 20580U 90037B 08320.60540263 .00000362 00000-0 15127-4 0 2638 2 20580 028.4688 055.5918 0003905 192.3490 167.7004 15.00428398817743 ISS (ZARYA) 1 25544U 98067A 08321.52849694 .00009674 00000-0 74901-4 0 6630 2 25544 051.6435 315.4580 0004152 000.4759 093.1192 15.72635718572508 CXO 1 25867U 99040B 08318.29166667 +.00000554 +00000-0 +10000-3 0 02646 2 25867 064.4828 076.2712 7104876 277.4282 356.9984 00.37801401004194 ____________________________________________________________________ These 2-Line ...Continue Reading

[list_settings.list_name] Current TLEs

November 17th 2008 PST

HST 1 20580U 90037B 08320.60540263 .00000362 00000-0 15127-4 0 2638 2 20580 028.4688 055.5918 0003905 192.3490 167.7004 15.00428398817743 ISS (ZARYA) 1 25544U 98067A 08320.39346321 .00010190 00000-0 78727-4 0 6571 2 25544 051.6436 321.2737 0003921 356.0926 147.2483 15.72614110572324 CXO 1 25867U 99040B 08318.29166667 +.00000554 +00000-0 +10000-3 0 02646 2 25867 064.4828 076.2712 7104876 277.4282 356.9984 00.37801401004194 ____________________________________________________________________ These 2-Line ...Continue Reading

[list_settings.list_name] Current TLEs

November 16th 2008 PST

HST 1 20580U 90037B 08319.54113514 .00000339 00000-0 13360-4 0 2624 2 20580 028.4686 062.5386 0003988 181.8565 178.2007 15.00427839817586 ISS (ZARYA) 1 25544U 98067A 08319.55847380 .00010446 00000-0 80643-4 0 6516 2 25544 051.6435 325.5526 0003737 351.3994 101.5743 15.72597613572199 CXO 1 25867U 99040B 08318.29166667 +.00000554 +00000-0 +10000-3 0 02646 2 25867 064.4828 076.2712 7104876 277.4282 356.9984 00.37801401004194 ____________________________________________________________________ These 2-Line ...Continue Reading

[list_settings.list_name] Current TLEs

November 15th 2008 PST

HST 1 20580U 90037B 08317.67866537 .00000359 00000-0 14944-4 0 2616 2 20580 028.4682 074.6869 0003918 162.4520 197.6204 15.00427267817300 ISS (ZARYA) 1 25544U 98067A 08318.67148292 .00010913 00000-0 84099-4 0 6455 2 25544 051.6436 330.0973 0003809 346.3452 121.7147 15.72579683572054 CXO 1 25867U 99040B 08318.29166667 +.00000554 +00000-0 +10000-3 0 02646 2 25867 064.4828 076.2712 7104876 277.4282 356.9984 00.37801401004194 ____________________________________________________________________ These 2-Line ...Continue Reading

[list_settings.list_name] Current TLEs

November 14th 2008 PST

HST 1 20580U 90037B 08317.67866537 .00000359 00000-0 14944-4 0 2616 2 20580 028.4682 074.6869 0003918 162.4520 197.6204 15.00427267817300 ISS (ZARYA) 1 25544U 98067A 08318.22101670 .00011943 00000-0 91629-4 0 6412 2 25544 051.6441 332.4033 0003785 347.9711 088.1728 15.72573517571983 CXO 1 25867U 99040B 08318.29166667 +.00000554 +00000-0 +10000-3 0 02646 2 25867 064.4828 076.2712 7104876 277.4282 356.9984 00.37801401004194 ____________________________________________________________________ These 2-Line ...Continue Reading

[list_settings.list_name] Current TLEs

November 13th 2008 PST

HST 1 20580U 90037B 08316.54788008 .00000327 00000-0 12437-4 0 2606 2 20580 028.4681 082.0638 0003882 152.1224 207.9574 15.00426470817134 ISS (ZARYA) 1 25544U 98067A 08316.38750818 .00013456 00000-0 10282-3 0 6293 2 25544 051.6442 341.7991 0003710 336.4579 152.8817 15.72532403571698 CXO 1 25867U 99040B 08315.66666667 +.00000662 +00000-0 +10000-3 0 02638 2 25867 064.4618 076.3890 7103485 277.4293 359.6743 00.37809423004180 ____________________________________________________________________ These 2-Line ...Continue Reading
  • This mailing list is a public mailing list - anyone may join or leave, at any time.
  • This mailing list is announce-only.

International Space Station (ISS) / Hubble Space Telescope (HST) / Chandra X-Ray Observatory Orbital Data via EMAIL

Privacy Policy:

Private list